Weather History for KHGR - November, 2011

Change the Weather History Date:

Thursday, November 3, 2011

  Actual Average Record
Temperature  
Mean Temperature 51 °F -  
Max Temperature 64 °F 55 °F 78 °F (2003)
Min Temperature 37 °F 39 °F 26 °F (2006)
Degree Days  
Heating Degree Days 14    
Month to date heating degree days 51  
Growing Degree Days 1 (Base 50)    
Moisture  
Dew Point 40 °F    
Average Humidity 68    
Maximum Humidity 92    
Minimum Humidity 43    
Precipitation  
Precipitation 0.00 in - - ()
Month to date precipitation 0.00  
Year to date precipitation 40.39  
Sea Level Pressure  
Sea Level Pressure 30.09 in    
Wind  
Wind Speed 2 mph (SSE)    
Max Wind Speed 8 mph    
Max Gust Speed 9 mph    
Visibility 10 miles    
Events      
Averages and records for this station are not official NWS values.
T = Trace of Precipitation, MM = Missing Value Source: NWS Daily Summary

Daily Weather History Graph

Daily Weather History Graph

Search for Another Location

Airport or City:

Trip Planner

Search our weather history database for the weather conditions in past years. The results will help you decide how hot, cold, wet, or windy it might be!

Date:

Astronomy

Nov. 03, 2011 Rise Set
Actual Time 7:41 AM EDT 6:06 PM EDT
Civil Twilight 7:13 AM EDT 6:35 PM EDT
Nautical Twilight 6:41 AM EDT 7:06 PM EDT
Astronomical Twilight 6:09 AM EDT 7:38 PM EDT
Moon 2:28 PM EDT (11/3) 12:52 AM EDT (11/3)
Length of Visible Light 11h 21m
Length of Day
10h 25m
First Quarter, 60% of the Moon is Illuminated
Nov 3
First Quarter
Nov 10
Full
Nov 18
Last Quarter
Nov 25
New
Dec 2
First Quarter

Hourly Weather History & Observations

Time (EDT) Temp. Windchill Dew Point Humidity Pressure Visibility Wind Dir Wind Speed Gust Speed Precip Events Conditions
12:53 AM 46.0 °F 43.9 °F 37.9 °F 73% 30.24 in 10.0 mi SSE 4.6 mph - N/A   Clear
1:53 AM 46.9 °F - 37.9 °F 71% 30.22 in 10.0 mi South 3.5 mph - N/A   Clear
2:53 AM 46.0 °F 44.8 °F 37.9 °F 73% 30.21 in 10.0 mi South 3.5 mph - N/A   Clear
3:53 AM 43.0 °F - 37.9 °F 82% 30.20 in 10.0 mi Calm Calm - N/A   Clear
4:53 AM 45.0 °F 42.6 °F 37.9 °F 76% 30.19 in 10.0 mi SSE 4.6 mph - N/A   Clear
6:53 AM 41.0 °F - 36.0 °F 82% 30.17 in 9.0 mi Calm Calm - N/A   Clear
7:53 AM 39.9 °F - 37.0 °F 89% 30.17 in 7.0 mi Calm Calm - N/A   Clear
8:53 AM 44.1 °F - 39.0 °F 82% 30.18 in 8.0 mi Calm Calm - N/A   Clear
9:53 AM 46.9 °F - 39.9 °F 77% 30.17 in 9.0 mi Calm Calm - N/A   Clear
10:53 AM 50.0 °F - 39.0 °F 66% 30.15 in 10.0 mi WSW 4.6 mph - N/A   Clear
11:53 AM 54.0 °F - 41.0 °F 62% 30.12 in 10.0 mi SSW 4.6 mph - N/A   Clear
12:53 PM 57.0 °F - 41.0 °F 55% 30.09 in 10.0 mi SSW 4.6 mph - N/A   Clear
1:53 PM 59.0 °F - 42.1 °F 53% 30.05 in 10.0 mi Calm Calm - N/A   Clear
2:53 PM 63.0 °F - 39.9 °F 43% 30.02 in 8.0 mi Calm Calm - N/A   Clear
3:53 PM 63.0 °F - 39.9 °F 43% 29.99 in 10.0 mi Calm Calm - N/A   Clear
4:53 PM 63.0 °F - 42.1 °F 46% 29.97 in 10.0 mi SSE 6.9 mph - N/A   Clear
5:53 PM 59.0 °F - 41.0 °F 51% 29.97 in 10.0 mi South 11.5 mph - N/A   Clear
6:53 PM 55.0 °F - 41.0 °F 59% 29.99 in 10.0 mi Calm Calm - N/A   Clear
7:53 PM 53.1 °F - 41.0 °F 64% 29.99 in 10.0 mi East 4.6 mph - N/A   Clear
8:53 PM 52.0 °F - 41.0 °F 66% 29.99 in 10.0 mi ESE 5.8 mph - N/A   Clear
10:53 PM 50.0 °F - 41.0 °F 71% 29.95 in 10.0 mi ENE 5.8 mph - N/A   Clear
11:53 PM 50.0 °F - 41.0 °F 71% 29.95 in 9.0 mi NNE 5.8 mph - N/A   Clear